This demonstration page uses our WeatherBlox Daily Observations layout. Learn more.

Left ArrowRight Arrow

53.62937, 11.41316

Hourly Observations for June 23, 2019

Temp ( °F °C ) Dew Point ( °F °C ) Humidity (%) Winds ( mph kmh ) Pressure ( in mb ) Visibility ( mi km ) Precip ( " mm )
6:50 am 06:50 Mostly Sunny 54 12 48 9 82 82 ENE 5 7 30.24 1024 7 11 N/A
7:20 am 07:20 Mostly Sunny 57 14 50 10 77 77 ENE 7 11 30.24 1024 7 11 N/A
7:50 am 07:50 Mostly Sunny 59 15 50 10 72 72 E 6 9 30.24 1024 7 11 N/A
8:20 am 08:20 Mostly Sunny 59 15 50 10 72 72 ENE 9 15 30.24 1024 7 11 N/A
8:50 am 08:50 Mostly Sunny 63 17 50 10 64 64 E 10 17 30.24 1024 7 11 N/A
9:20 am 09:20 Mostly Sunny 64 18 48 9 56 56 ENE 10 17 30.24 1024 7 11 N/A
9:50 am 09:50 Mostly Sunny 66 19 50 10 56 56 E 8 13 30.24 1024 7 11 N/A
10:20 am 10:20 Mostly Sunny 68 20 52 11 56 56 ENE 9 15 30.24 1024 7 11 N/A
10:50 am 10:50 Mostly Sunny 70 21 54 12 57 57 E 8 13 30.24 1024 7 11 N/A
11:20 am 11:20 Mostly Sunny 70 21 52 11 53 53 E 8 13 30.24 1024 7 11 N/A
11:50 am 11:50 Mostly Sunny 72 22 52 11 50 50 E 8 13 30.24 1024 7 11 N/A
12:20 pm 12:20 Mostly Sunny 73 23 55 13 53 53 E 7 11 30.24 1024 7 11 N/A
12:50 pm 12:50 Mostly Sunny 73 23 52 11 47 47 ESE 7 11 30.24 1024 7 11 N/A
1:20 pm 13:20 Mostly Sunny 73 23 52 11 47 47 E 8 13 30.24 1024 7 11 N/A
1:50 pm 13:50 Mostly Sunny 75 24 55 13 50 50 E 8 13 30.24 1024 7 11 N/A
2:20 pm 14:20 Mostly Sunny 72 22 59 15 65 65 NE 12 19 30.24 1024 30 48 N/A
2:50 pm 14:50 Mostly Sunny 73 23 59 15 61 61 NNE 12 19 30.24 1024 30 48 N/A
3:20 pm 15:20 Mostly Sunny 73 23 59 15 61 61 NNE 13 20 30.21 1023 30 48 N/A
3:50 pm 15:50 Mostly Sunny 73 23 59 15 61 61 NE 12 19 30.21 1023 7 11 N/A
4:20 pm 16:20 Mostly Sunny 73 23 57 14 57 57 NE 13 20 30.21 1023 7 11 N/A
4:50 pm 16:50 Mostly Sunny 73 23 57 14 57 57 NE 12 19 30.21 1023 7 11 N/A
5:20 pm 17:20 Mostly Sunny 73 23 59 15 61 61 NE 12 19 30.21 1023 7 11 N/A
5:50 pm 17:50 Mostly Sunny 72 22 55 13 57 57 NE 14 22 30.21 1023 7 11 N/A
6:20 pm 18:20 Mostly Sunny 72 22 55 13 57 57 NE 12 19 30.21 1023 7 11 N/A
6:50 pm 18:50 Mostly Sunny 72 22 55 13 57 57 NE 10 17 30.21 1023 7 11 N/A
7:20 pm 19:20 Mostly Sunny 72 22 55 13 57 57 NE 10 17 30.18 1022 7 11 N/A
7:50 pm 19:50 Mostly Sunny 70 21 57 14 64 64 NE 9 15 30.21 1023 7 11 N/A
8:20 pm 20:20 Mostly Sunny 68 20 55 13 64 64 NE 9 15 30.21 1023 7 11 N/A
8:50 pm 20:50 Mostly Sunny 66 19 57 14 73 73 NE 9 15 30.21 1023 7 11 N/A

Powered by AerisWeather